Regional Weather Roundup
Issued by NWS

Home | Current Version | Previous Version | Graphics & Text | Print | Product List | Glossary On
Versions: 1 2 3 4 5 6 7 8 9 10 11 12 13 14 15 16 17 18 19 20 21 22 23 24 25 26 27 28 29 30 31 32 33 34 35 36 37 38 39 40 41 42 43 44 45 46 47 48 49 50
000
ASUS43 KTOP 161659
RWRKS

WEATHER ROUNDUP FOR KANSAS
NATIONAL WEATHER SERVICE GOODLAND KS
1200 PM CDT WED APR 16 2014

NOTE:  "FAIR" INDICATES FEW OR NO CLOUDS BELOW 12,000 FEET WITH NO
SIGNIFICANT WEATHER AND/OR OBSTRUCTIONS TO VISIBILITY.

KSZ001>006-013>018-027>032-041>047-161800-
NORTHWEST KANSAS

CITY           SKY/WX    TMP DP  RH WIND       PRES   REMARKS
GOODLAND       SUNNY     55  30  38 NW38G48   29.85R
HAYS           MOSUNNY   64  36  34 NW17G26   29.77R
HILL CITY      SUNNY     61  35  37 NW23G33   29.79R
RUSSELL        SUNNY     66  32  28 NW14      29.74R
$$

KSZ061>065-074>080-084>089-161800-
SOUTHWEST KANSAS

CITY           SKY/WX    TMP DP  RH WIND       PRES   REMARKS
DODGE CITY     SUNNY     65  31  28 N20G29    29.82R
ELKHART          N/A     60  28  29 N15         N/A
GARDEN CITY    MOSUNNY   61  28  28 N24G37    29.85R
GREAT BEND     SUNNY     64  28  25 W9G16     29.78R
LIBERAL        SUNNY     64  30  27 N17G26    29.86R
$$

KSZ066>073-081>083-090>101-161800-
SOUTHEAST KANSAS

CITY           SKY/WX    TMP DP  RH WIND       PRES   REMARKS
CHANUTE        MOSUNNY   59  32  36 S31G41    29.99S
COFFEYVILLE    SUNNY     59  32  36 S30G39    30.00F
HUTCHINSON     SUNNY     63  25  23 S25G37    29.82S
NEWTON         SUNNY     63  25  23 S40G51    29.86S
PARSONS        MOSUNNY   59  31  34 S23G37    30.00F
WICHITA INTL   PTSUNNY   63  27  25 S31G49    29.86R
WICHITA JABRA  SUNNY     63  28  26 S32G45    29.86R
WINFIELD       SUNNY     63  30  28 S28G41    29.91F
$$

KSZ007>012-019>026-033>040-048>060-102>105-161800-
NORTHEAST KANSAS

CITY           SKY/WX    TMP DP  RH WIND       PRES   REMARKS
CONCORDIA      MOSUNNY   62  24  23 SW28G37   29.73S
EMPORIA        SUNNY     60  26  27 S32G45    29.87F
LAWRENCE       PTSUNNY   60  31  33 S29G40    29.91F
MANHATTAN      MOSUNNY   65  28  24 SW31G43   29.79R
OLATHE IND     MOSUNNY   59  32  36 S28G39    29.94F
OLATHE EXE     MOSUNNY   57  29  34 S26G38    29.93F
SALINA         SUNNY     65  25  22 SW28G40   29.79R
TOPEKA BILLARD PTSUNNY   60  28  29 S24G39    29.86F
TOPEKA FORBES  PTSUNNY   59  29  31 S35G46    29.84F
$$



USA.gov is the U.S. government's official web portal to all federal, state and local government web resources and services.